CKJ4080 ZSSS-ZZZZ

Flight info

Callsign CKJ4080
Flight time N/A
Altitude 36100
Route PIKAS G330 PIMOL A593 DALIM W157 AVBOX
Aircraft B738/M-SDE2E3FGHIRWXY/LB2

Departure

Time 2026-05-01 10:55
Airport Shanghai Hongqiao International Airport (ZSSS)

Arrival

Time N/A
Airport ZZZZ
Time Latitude Longitude Altitude Speed Heading
2026-05-01 10:43 31.19271 121.34086 18 ft 0 kts 178°
2026-05-01 10:47 31.19263 121.34087 18 ft 5 kts 178°
2026-05-01 10:47 31.19208 121.34088 18 ft 6 kts 184°
2026-05-01 10:47 31.19186 121.34070 19 ft 4 kts 239°
2026-05-01 10:48 31.19182 121.34031 18 ft 7 kts 256°
2026-05-01 10:48 31.19142 121.34001 20 ft 7 kts 179°
2026-05-01 10:48 31.19079 121.34002 20 ft 7 kts 188°
2026-05-01 10:48 31.19054 121.33953 19 ft 9 kts 272°
2026-05-01 10:49 31.19083 121.33910 18 ft 8 kts 348°
2026-05-01 10:49 31.19151 121.33916 18 ft 12 kts
2026-05-01 10:49 31.19245 121.33912 18 ft 16 kts 357°
2026-05-01 10:49 31.19383 121.33904 18 ft 23 kts 357°
2026-05-01 10:50 31.19551 121.33895 18 ft 25 kts 357°
2026-05-01 10:50 31.19728 121.33885 18 ft 25 kts 357°
2026-05-01 10:50 31.19893 121.33877 18 ft 23 kts 358°
2026-05-01 10:50 31.20051 121.33869 18 ft 22 kts 358°
2026-05-01 10:51 31.20203 121.33860 18 ft 22 kts 357°
2026-05-01 10:51 31.20356 121.33852 18 ft 23 kts 357°
2026-05-01 10:51 31.20519 121.33843 18 ft 24 kts 358°
2026-05-01 10:51 31.20691 121.33834 18 ft 25 kts 357°
2026-05-01 10:52 31.20870 121.33824 18 ft 26 kts 357°
2026-05-01 10:52 31.21057 121.33814 19 ft 27 kts 357°
2026-05-01 10:52 31.21202 121.33766 19 ft 19 kts 316°
2026-05-01 10:52 31.21283 121.33650 20 ft 18 kts 309°
2026-05-01 10:53 31.21307 121.33537 19 ft 14 kts 268°
2026-05-01 10:53 31.21303 121.33426 18 ft 13 kts 266°
2026-05-01 10:53 31.21299 121.33319 18 ft 13 kts 267°
2026-05-01 10:53 31.21293 121.33212 19 ft 13 kts 258°
2026-05-01 10:54 31.21245 121.33169 17 ft 9 kts 186°
2026-05-01 10:54 31.21234 121.33170 17 ft 1 kts 178°
2026-05-01 10:54 31.21224 121.33170 17 ft 2 kts 178°
2026-05-01 10:54 31.21152 121.33173 18 ft 37 kts 177°
2026-05-01 10:55 31.20566 121.33206 19 ft 129 kts 177°
2026-05-01 10:55 31.19497 121.33265 476 ft 166 kts 178°
2026-05-01 10:55 31.18288 121.33328 1393 ft 181 kts 178°
2026-05-01 10:55 31.16949 121.33391 2046 ft 204 kts 178°
2026-05-01 10:56 31.15572 121.33455 2639 ft 192 kts 178°
2026-05-01 10:56 31.14251 121.33518 3251 ft 189 kts 178°
2026-05-01 10:56 31.12886 121.33582 3901 ft 203 kts 178°
2026-05-01 10:56 31.11464 121.33649 4513 ft 211 kts 178°
2026-05-01 10:57 31.09950 121.33721 5026 ft 226 kts 178°
2026-05-01 10:57 31.08303 121.33798 5544 ft 247 kts 178°
2026-05-01 10:57 31.06548 121.33526 6062 ft 266 kts 201°
2026-05-01 10:57 31.04990 121.32325 6593 ft 275 kts 228°
2026-05-01 10:58 31.04095 121.30392 7085 ft 274 kts 258°
2026-05-01 10:58 31.04124 121.28181 7610 ft 275 kts 280°
2026-05-01 10:58 31.04520 121.25985 8129 ft 283 kts 282°
2026-05-01 10:58 31.04959 121.23699 8646 ft 293 kts 283°
2026-05-01 10:59 31.05410 121.21371 9146 ft 294 kts 282°
2026-05-01 10:59 31.05849 121.19031 9649 ft 296 kts 282°
2026-05-01 10:59 31.06285 121.16683 10147 ft 297 kts 284°
2026-05-01 10:59 31.07150 121.14495 10585 ft 301 kts 308°
2026-05-01 11:00 31.08742 121.12953 11019 ft 311 kts 333°
2026-05-01 11:00 31.10876 121.12270 11484 ft 328 kts 354°
2026-05-01 11:00 31.13214 121.12135 11935 ft 345 kts 358°
2026-05-01 11:00 31.15667 121.12051 12375 ft 360 kts 358°
2026-05-01 11:01 31.18216 121.11952 12811 ft 372 kts 357°
2026-05-01 11:01 31.20819 121.11822 13240 ft 374 kts 357°
2026-05-01 11:01 31.23419 121.11677 13657 ft 375 kts 357°
2026-05-01 11:01 31.26037 121.11527 14082 ft 377 kts 357°
2026-05-01 11:02 31.28654 121.11377 14503 ft 378 kts 357°
2026-05-01 11:02 31.31300 121.11224 14933 ft 380 kts 357°
2026-05-01 11:02 31.33951 121.11071 15359 ft 382 kts 357°
2026-05-01 11:02 31.36618 121.10999 15783 ft 385 kts
2026-05-01 11:03 31.39293 121.11179 16209 ft 387 kts
2026-05-01 11:03 31.41957 121.11412 16634 ft 389 kts
2026-05-01 11:03 31.44673 121.11493 17044 ft 391 kts 353°
2026-05-01 11:03 31.47278 121.10599 17481 ft 392 kts 336°
2026-05-01 11:04 31.49757 121.09248 17913 ft 394 kts 334°
2026-05-01 11:04 31.52250 121.07863 18338 ft 397 kts 334°
2026-05-01 11:04 31.54759 121.06493 18771 ft 400 kts 335°
2026-05-01 11:04 31.57165 121.05204 19173 ft 402 kts 335°
2026-05-01 11:05 31.59724 121.03843 19600 ft 405 kts 335°
2026-05-01 11:05 31.62297 121.02477 20022 ft 408 kts 335°
2026-05-01 11:05 31.64463 121.01327 20383 ft 410 kts 335°
2026-05-01 11:05 31.66874 121.00044 20776 ft 413 kts 335°
2026-05-01 11:06 31.69500 120.98646 21205 ft 415 kts 335°
2026-05-01 11:06 31.72136 120.97240 21634 ft 418 kts 335°
2026-05-01 11:06 31.74789 120.95824 22059 ft 420 kts 335°
2026-05-01 11:07 31.80151 120.92957 22905 ft 426 kts 335°
2026-05-01 11:07 31.82852 120.91513 23339 ft 428 kts 335°
2026-05-01 11:07 31.85573 120.90056 23765 ft 431 kts 335°
2026-05-01 11:07 31.88302 120.88594 24190 ft 433 kts 335°
2026-05-01 11:08 31.91062 120.87114 24618 ft 436 kts 335°
2026-05-01 11:08 31.93829 120.85630 25044 ft 439 kts 335°
2026-05-01 11:08 31.99426 120.82625 25895 ft 444 kts 335°
2026-05-01 11:09 32.02241 120.81110 26322 ft 446 kts 335°
2026-05-01 11:09 32.05071 120.79587 26747 ft 448 kts 335°
2026-05-01 11:09 32.07906 120.78060 27172 ft 449 kts 335°
2026-05-01 11:10 32.13415 120.74708 27986 ft 449 kts 320°
2026-05-01 11:10 32.15509 120.71997 28417 ft 448 kts 303°
2026-05-01 11:10 32.16904 120.68729 28844 ft 447 kts 288°
2026-05-01 11:10 32.17512 120.65151 29280 ft 444 kts 276°
2026-05-01 11:11 32.17807 120.61519 29707 ft 443 kts 275°
2026-05-01 11:11 32.18057 120.57893 30127 ft 441 kts 275°
2026-05-01 11:11 32.18308 120.54289 30546 ft 440 kts 275°
2026-05-01 11:11 32.18574 120.50702 30965 ft 438 kts 275°
2026-05-01 11:12 32.18856 120.47129 31384 ft 436 kts 275°
2026-05-01 11:12 32.19147 120.43564 31805 ft 435 kts 275°
2026-05-01 11:12 32.19440 120.40022 32226 ft 433 kts 275°
2026-05-01 11:12 32.19732 120.36491 32648 ft 431 kts 275°
2026-05-01 11:13 32.20021 120.32978 33063 ft 430 kts 275°
2026-05-01 11:13 32.20306 120.29481 33482 ft 428 kts 275°
2026-05-01 11:13 32.20591 120.25975 33903 ft 427 kts 275°
2026-05-01 11:13 32.20875 120.22505 34321 ft 425 kts 275°
2026-05-01 11:14 32.21159 120.19027 34741 ft 423 kts 275°
2026-05-01 11:14 32.21440 120.15580 35159 ft 422 kts 275°
2026-05-01 11:14 32.21721 120.12131 35578 ft 420 kts 275°
2026-05-01 11:14 32.21997 120.08714 35990 ft 418 kts 275°
2026-05-01 11:15 32.22274 120.05289 36091 ft 424 kts 275°
2026-05-01 11:15 32.22555 120.01788 36105 ft 432 kts 275°
2026-05-01 11:15 32.23120 119.94716 36103 ft 434 kts 275°
2026-05-01 11:16 32.23682 119.87640 36099 ft 431 kts 275°
2026-05-01 11:16 32.24255 119.80626 36097 ft 428 kts 279°
2026-05-01 11:17 32.25137 119.77286 36102 ft 426 kts 297°
2026-05-01 11:17 32.26791 119.74389 36104 ft 425 kts 313°
2026-05-01 11:17 32.29037 119.72140 36112 ft 424 kts 324°
2026-05-01 11:17 32.31449 119.70134 36106 ft 424 kts 325°
2026-05-01 11:18 32.36262 119.66179 36099 ft 425 kts 324°
2026-05-01 11:18 32.41076 119.62108 36101 ft 426 kts 324°
2026-05-01 11:19 32.45892 119.57985 36103 ft 427 kts 324°
2026-05-01 11:19 32.50712 119.53838 36103 ft 429 kts 323°
2026-05-01 11:20 32.55535 119.49668 36102 ft 430 kts 323°
2026-05-01 11:20 32.60376 119.45478 36103 ft 431 kts 323°
2026-05-01 11:21 32.65216 119.41284 36102 ft 431 kts 323°
2026-05-01 11:21 32.70064 119.37078 36102 ft 432 kts 323°
2026-05-01 11:22 32.74907 119.32872 36100 ft 431 kts 323°
2026-05-01 11:22 32.79749 119.28660 36102 ft 431 kts 323°
2026-05-01 11:23 32.84588 119.24444 36101 ft 430 kts 323°
2026-05-01 11:23 32.89376 119.20267 36099 ft 429 kts 323°
2026-05-01 11:24 32.94195 119.16058 36102 ft 429 kts 323°
2026-05-01 11:25 33.01445 119.09808 36100 ft 428 kts 324°
2026-05-01 11:25 33.08683 119.03577 36101 ft 428 kts 324°
2026-05-01 11:26 33.15923 118.97319 36102 ft 428 kts 324°
2026-05-01 11:27 33.20745 118.93143 36102 ft 428 kts 323°
2026-05-01 11:27 33.25525 118.88969 36102 ft 428 kts 323°
2026-05-01 11:28 33.30335 118.84764 36099 ft 429 kts 323°
2026-05-01 11:28 33.35165 118.80580 36102 ft 429 kts 324°
2026-05-01 11:29 33.42421 118.74295 36102 ft 429 kts 324°
2026-05-01 11:30 33.49674 118.67998 36100 ft 429 kts 324°
2026-05-01 11:30 33.54521 118.63799 36100 ft 430 kts 324°
2026-05-01 11:31 33.58550 118.60305 36102 ft 430 kts 324°
2026-05-01 11:31 33.64204 118.55391 36101 ft 430 kts 324°
2026-05-01 11:32 33.69013 118.51205 36102 ft 429 kts 324°
2026-05-01 11:32 33.73065 118.47672 36102 ft 429 kts 323°
2026-05-01 11:33 33.78683 118.42767 36099 ft 429 kts 323°
2026-05-01 11:33 33.82703 118.39253 36101 ft 429 kts 323°
2026-05-01 11:34 33.87530 118.35026 36102 ft 429 kts 323°
2026-05-01 11:34 33.92365 118.30787 36102 ft 429 kts 323°
2026-05-01 11:35 33.97192 118.26550 36101 ft 429 kts 323°
2026-05-01 11:35 34.02023 118.22341 36100 ft 429 kts 324°
2026-05-01 11:36 34.06869 118.18126 36102 ft 429 kts 324°
2026-05-01 11:36 34.11706 118.13910 36102 ft 429 kts 324°
2026-05-01 11:37 34.16549 118.09692 36102 ft 429 kts 324°
2026-05-01 11:37 34.21357 118.05497 36100 ft 429 kts 324°
2026-05-01 11:38 34.26202 118.01293 36099 ft 429 kts 327°
2026-05-01 11:38 34.31627 117.98327 36107 ft 429 kts 343°
2026-05-01 11:39 34.37369 117.96336 36099 ft 429 kts 344°
2026-05-01 11:39 34.43123 117.94359 36102 ft 430 kts 343°
2026-05-01 11:40 34.48861 117.92333 36101 ft 430 kts 343°
2026-05-01 11:40 34.54598 117.90280 36099 ft 430 kts 343°
2026-05-01 11:41 34.60336 117.88221 36100 ft 430 kts 343°
2026-05-01 11:41 34.66041 117.86171 36101 ft 430 kts 343°
2026-05-01 11:42 34.71787 117.84105 36102 ft 430 kts 343°
2026-05-01 11:42 34.77528 117.82037 36100 ft 430 kts 343°
2026-05-01 11:43 34.83268 117.79965 36099 ft 430 kts 343°
2026-05-01 11:43 34.88993 117.77863 36103 ft 430 kts 343°
2026-05-01 11:44 34.97608 117.74713 36103 ft 430 kts 343°
2026-05-01 11:44 35.03308 117.72626 36101 ft 431 kts 343°
2026-05-01 11:45 35.09058 117.70517 36101 ft 431 kts 343°
2026-05-01 11:45 35.14797 117.68414 36102 ft 431 kts 343°
2026-05-01 11:46 35.20550 117.66302 36102 ft 431 kts 343°
2026-05-01 11:46 35.26291 117.64191 36101 ft 431 kts 343°
2026-05-01 11:47 35.32044 117.62072 36102 ft 431 kts 343°
2026-05-01 11:47 35.37791 117.59953 36101 ft 431 kts 343°
2026-05-01 11:48 35.43546 117.57827 36103 ft 431 kts 343°
2026-05-01 11:48 35.49254 117.55715 36101 ft 431 kts 343°
2026-05-01 11:49 35.55000 117.53586 36101 ft 431 kts 343°
2026-05-01 11:49 35.60748 117.51453 36102 ft 431 kts 343°
2026-05-01 11:50 35.66492 117.49318 36101 ft 431 kts 343°
2026-05-01 11:50 35.72230 117.47182 36100 ft 431 kts 343°
2026-05-01 11:51 35.77966 117.45044 36101 ft 431 kts 343°
2026-05-01 11:51 35.83705 117.42902 36102 ft 431 kts 343°
2026-05-01 11:52 35.89445 117.40755 36102 ft 430 kts 343°
2026-05-01 11:52 35.95183 117.38606 36100 ft 430 kts 343°
2026-05-01 11:53 36.00866 117.36477 36102 ft 430 kts 343°
2026-05-01 11:53 36.06618 117.34349 36104 ft 431 kts 343°
2026-05-01 11:54 36.12362 117.32232 36104 ft 431 kts 343°
2026-05-01 11:54 36.18120 117.30102 36100 ft 431 kts 343°
2026-05-01 11:55 36.23865 117.27972 36101 ft 431 kts 343°
2026-05-01 11:55 36.29623 117.25833 36101 ft 431 kts 343°
2026-05-01 11:56 36.35335 117.23707 36100 ft 431 kts 343°
2026-05-01 11:56 36.41087 117.21564 36102 ft 432 kts 342°
2026-05-01 11:57 36.46695 117.18905 36103 ft 432 kts 337°
2026-05-01 11:57 36.52226 117.15961 36105 ft 433 kts 336°
2026-05-01 11:58 36.57767 117.13018 36101 ft 433 kts 336°
2026-05-01 11:59 36.66101 117.08653 36103 ft 433 kts 337°
2026-05-01 11:59 36.71656 117.05753 36101 ft 432 kts 337°
2026-05-01 12:00 36.79954 117.01411 36100 ft 430 kts 337°
2026-05-01 12:01 36.88185 116.97092 36101 ft 429 kts 337°
2026-05-01 12:01 36.93689 116.94199 36101 ft 428 kts 337°
2026-05-01 12:02 36.99181 116.91307 36102 ft 428 kts 337°
2026-05-01 12:02 37.04668 116.88413 36102 ft 428 kts 337°
2026-05-01 12:03 37.10164 116.85509 36102 ft 428 kts 337°
2026-05-01 12:03 37.15649 116.82607 36102 ft 428 kts 337°
2026-05-01 12:04 37.21143 116.79699 36101 ft 429 kts 338°
2026-05-01 12:04 37.26762 116.77346 36105 ft 429 kts 343°
2026-05-01 12:05 37.32513 116.75254 36102 ft 430 kts 343°
2026-05-01 12:05 37.41112 116.72074 36102 ft 430 kts 343°
2026-05-01 12:06 37.46898 116.69887 35735 ft 440 kts 343°
2026-05-01 12:06 37.49835 116.68772 35368 ft 441 kts 343°
2026-05-01 12:06 37.52759 116.67660 34994 ft 437 kts 343°
2026-05-01 12:07 37.55669 116.66554 34618 ft 436 kts 343°
2026-05-01 12:07 37.58577 116.65447 34248 ft 437 kts 343°
2026-05-01 12:07 37.61493 116.64337 33876 ft 438 kts 343°
2026-05-01 12:07 37.64412 116.63224 33504 ft 438 kts 343°
2026-05-01 12:08 37.67338 116.62108 33132 ft 439 kts 343°
2026-05-01 12:08 37.70222 116.61008 32765 ft 439 kts 343°
2026-05-01 12:08 37.73146 116.59891 32393 ft 439 kts 343°
2026-05-01 12:08 37.76068 116.58774 32021 ft 439 kts 343°
2026-05-01 12:09 37.78997 116.57654 31644 ft 440 kts 343°
2026-05-01 12:09 37.81929 116.56531 31276 ft 440 kts 343°
2026-05-01 12:09 37.84870 116.55404 30903 ft 441 kts 343°
2026-05-01 12:09 37.87806 116.54277 30536 ft 442 kts 343°
2026-05-01 12:10 37.90752 116.53146 30156 ft 443 kts 343°
2026-05-01 12:10 37.96629 116.50736 29408 ft 444 kts 336°
2026-05-01 12:10 37.99370 116.48943 29029 ft 445 kts 327°
2026-05-01 12:11 38.04382 116.44306 28303 ft 446 kts 323°
2026-05-01 12:11 38.06877 116.41941 27933 ft 447 kts 323°
2026-05-01 12:11 38.09388 116.39611 27549 ft 448 kts 324°
2026-05-01 12:12 38.11918 116.37290 27175 ft 449 kts 324°
2026-05-01 12:12 38.14458 116.34965 26802 ft 450 kts 324°
2026-05-01 12:12 38.16999 116.32633 26409 ft 450 kts 324°
2026-05-01 12:12 38.19538 116.30299 26051 ft 451 kts 324°
2026-05-01 12:13 38.22051 116.27991 25681 ft 451 kts 325°
2026-05-01 12:13 38.24884 116.26188 25284 ft 452 kts 343°
2026-05-01 12:13 38.27975 116.25544 24922 ft 451 kts 358°
2026-05-01 12:13 38.31047 116.25977 24555 ft 449 kts 13°
2026-05-01 12:14 38.34059 116.26997 24194 ft 447 kts 15°
2026-05-01 12:14 38.37036 116.28086 23818 ft 444 kts 16°
2026-05-01 12:14 38.39998 116.29175 23445 ft 441 kts 15°
2026-05-01 12:14 38.42937 116.30234 23065 ft 438 kts 15°
2026-05-01 12:15 38.45871 116.31268 22688 ft 435 kts 15°
2026-05-01 12:15 38.48785 116.32280 22313 ft 432 kts 15°
2026-05-01 12:15 38.51680 116.33278 21938 ft 430 kts 15°
2026-05-01 12:15 38.54568 116.34273 21562 ft 427 kts 15°
2026-05-01 12:16 38.57435 116.35263 21186 ft 425 kts 15°
2026-05-01 12:16 38.60285 116.36248 20802 ft 423 kts 15°
2026-05-01 12:16 38.63131 116.37153 20431 ft 420 kts 10°
2026-05-01 12:16 38.65984 116.37534 20063 ft 418 kts
2026-05-01 12:17 38.68883 116.37309 19692 ft 415 kts 353°
2026-05-01 12:17 38.71735 116.36845 19319 ft 413 kts 352°
2026-05-01 12:17 38.74578 116.36356 18945 ft 411 kts 352°
2026-05-01 12:17 38.77405 116.35876 18573 ft 409 kts 352°
2026-05-01 12:18 38.80223 116.35410 18204 ft 407 kts 352°
2026-05-01 12:18 38.83022 116.34959 17821 ft 404 kts 353°
2026-05-01 12:18 38.85809 116.34518 17445 ft 402 kts 353°
2026-05-01 12:18 38.88573 116.34083 17071 ft 400 kts 353°
2026-05-01 12:19 38.91333 116.33650 16695 ft 398 kts 353°
2026-05-01 12:19 38.94073 116.33221 16321 ft 397 kts 353°
2026-05-01 12:19 38.96822 116.32789 15945 ft 395 kts 353°
2026-05-01 12:19 38.99509 116.32366 15553 ft 382 kts 353°
2026-05-01 12:20 39.02102 116.31958 15179 ft 370 kts 353°
2026-05-01 12:20 39.03780 116.31694 14934 ft 362 kts 353°
2026-05-01 12:20 39.07086 116.31211 14429 ft 353 kts 354°
2026-05-01 12:20 39.08700 116.31012 14181 ft 350 kts 354°
2026-05-01 12:21 39.11111 116.30731 13802 ft 349 kts 354°
2026-05-01 12:21 39.13527 116.30455 13433 ft 346 kts 354°
2026-05-01 12:21 39.15911 116.30180 13057 ft 341 kts 354°
2026-05-01 12:21 39.18242 116.29908 12678 ft 333 kts 354°
2026-05-01 12:22 39.20525 116.29638 12297 ft 326 kts 354°
2026-05-01 12:22 39.22765 116.29372 11922 ft 320 kts 354°
2026-05-01 12:22 39.24962 116.29109 11546 ft 314 kts 354°
2026-05-01 12:22 39.27124 116.28850 11170 ft 310 kts 354°
2026-05-01 12:23 39.29258 116.28594 10794 ft 305 kts 354°
2026-05-01 12:23 39.31360 116.28341 10408 ft 302 kts 354°
2026-05-01 12:23 39.33434 116.28092 10043 ft 298 kts 354°
2026-05-01 12:23 39.35489 116.27844 9667 ft 295 kts 354°
2026-05-01 12:24 39.37529 116.27598 9291 ft 292 kts 354°
2026-05-01 12:24 39.39540 116.27356 8916 ft 290 kts 354°
2026-05-01 12:24 39.41542 116.27114 8540 ft 287 kts 354°
2026-05-01 12:24 39.43521 116.26875 8166 ft 285 kts 354°
2026-05-01 12:25 39.45492 116.26637 7786 ft 283 kts 354°
2026-05-01 12:25 39.49359 116.26170 7043 ft 279 kts 354°
2026-05-01 12:25 39.51293 116.25936 6671 ft 278 kts 354°
2026-05-01 12:26 39.53213 116.25703 6296 ft 276 kts 354°
2026-05-01 12:26 39.57021 116.25241 5548 ft 273 kts 354°
2026-05-01 12:26 39.58907 116.25013 5179 ft 271 kts 354°
2026-05-01 12:27 39.60753 116.24789 4785 ft 261 kts 354°
2026-05-01 12:27 39.64256 116.24379 4072 ft 244 kts 358°
2026-05-01 12:28 39.67397 116.24983 4001 ft 214 kts 12°
2026-05-01 12:28 39.68553 116.25305 3816 ft 218 kts 11°
2026-05-01 12:28 39.71538 116.26100 3316 ft 217 kts 11°
2026-05-01 12:29 39.73004 116.26478 3162 ft 211 kts 11°
2026-05-01 12:29 39.74410 116.26838 3116 ft 201 kts 10°
2026-05-01 12:29 39.77037 116.27423 3125 ft 188 kts
2026-05-01 12:30 39.79650 116.27271 3077 ft 189 kts 355°
2026-05-01 12:30 39.80942 116.27144 2875 ft 183 kts 355°
2026-05-01 12:30 39.82196 116.27020 2640 ft 178 kts 355°
2026-05-01 12:31 39.83392 116.26902 2421 ft 167 kts 355°
2026-05-01 12:31 39.84533 116.26790 2199 ft 163 kts 355°
2026-05-01 12:31 39.85674 116.26678 1986 ft 164 kts 355°
2026-05-01 12:31 39.86749 116.26572 1772 ft 148 kts 355°
2026-05-01 12:32 39.87732 116.26476 1576 ft 136 kts 355°
2026-05-01 12:32 39.89577 116.26294 1238 ft 135 kts 355°
2026-05-01 12:32 39.90515 116.26203 1057 ft 134 kts 355°
2026-05-01 12:33 39.91445 116.26111 876 ft 134 kts 355°
2026-05-01 12:33 39.92374 116.26020 691 ft 133 kts 354°
2026-05-01 12:33 39.93297 116.25927 525 ft 133 kts 355°
2026-05-01 12:33 39.94224 116.25832 331 ft 133 kts 355°
2026-05-01 12:34 39.95140 116.25750 204 ft 130 kts 355°
2026-05-01 12:34 39.95905 116.25674 197 ft 82 kts 356°
2026-05-01 12:34 39.96266 116.25638 198 ft 32 kts 355°
2026-05-01 12:34 39.96441 116.25621 198 ft 15 kts 356°
2026-05-01 12:35 39.96517 116.25647 198 ft 8 kts 50°
2026-05-01 12:35 39.96519 116.25684 190 ft 3 kts 123°
2026-05-01 12:35 39.96506 116.25710 193 ft 4 kts 119°
2026-05-01 12:35 39.96481 116.25759 193 ft 9 kts 120°
2026-05-01 12:36 39.96462 116.25838 191 ft 10 kts 89°
2026-05-01 12:36 39.96467 116.25924 191 ft 9 kts 86°
2026-05-01 12:36 39.96463 116.25991 191 ft 5 kts 123°
2026-05-01 12:36 39.96432 116.26007 200 ft 4 kts 176°
2026-05-01 12:37 39.96416 116.26008 194 ft 0 kts 178°